Location: ??????? ???????
(60.5937°N, 46.7274°E)
Time: 10:29:16
(UTC+00:00)

Daily predictions for brighter satellites

Satellite Brightness Start Highest point End
(mag) Time Altitude Azimuth Time Altitude Azimuth Time Altitude Azimuth
Lacrosse 5 2.3 14:18:48 10° WSW 14:23:47 59° S 14:28:46 10° E
Nadezhda 3 Rocket 4.5 14:18:52 10° SSE 14:24:39 40° E 14:30:30 10° NNE
Cosmos 1818 3.6 14:19:53 10° SW 14:25:23 80° SE 14:30:53 10° ENE
Cosmos 1934 Rocket 4.2 14:20:08 10° N 14:26:16 51° ENE 14:32:27 10° SE
CZ-2D R/B 3.9 14:24:46 10° SE 14:28:18 35° ENE 14:31:51 10° N
COSMOS 2406 3.3 14:23:19 10° NW 14:29:08 71° NE 14:34:54 10° SE
COBE Rocket 4.5 14:24:27 10° NNE 14:29:23 41° E 14:34:15 10° SSE
Cosmos 2227 4.3 14:23:54 10° SSW 14:29:33 73° SE 14:35:18 10° NE
Cosmos 2227 Rocket 3.1 14:26:26 10° WSW 14:31:54 46° NNW 14:37:24 10° NE
Cosmos 2058 Rocket 4.4 14:29:32 10° SE 14:32:36 19° E 14:35:42 10° NE
USA 186 3.6 14:32:14 10° ENE 14:32:54 11° NE 14:33:34 10° NE
NOAA 12 4.4 14:27:43 10° SSE 14:33:01 76° WSW 14:38:22 10° NNW
Cosmos 2082 Rocket 2.7 14:28:36 10° NW 14:34:07 45° NNE 14:39:37 10° ESE
Cosmos 2082 4.4 14:28:35 10° WSW 14:34:12 55° NW 14:39:48 10° NE
Cosmos 1703 3.9 14:31:44 10° N 14:35:25 35° ENE 14:39:04 10° SE
ARGOS 4.3 14:31:14 10° E 14:35:32 25° NE 14:39:52 10° N
Cosmos 1953 3.1 14:31:57 10° SSE 14:35:33 32° E 14:39:12 10° NNE
Cosmos 1455 Rocket 3.8 14:33:34 10° SSW 14:37:59 61° WNW 14:42:25 10° N
Cosmos 2297 Rocket 3.2 14:32:42 10° WSW 14:38:07 43° NNW 14:43:31 10° NE
CZ-4B R/B 4.0 14:37:49 10° N 14:40:04 19° NW 14:42:19 10° WSW
Cosmos 1758 3.5 14:36:22 10° S 14:40:12 49° E 14:44:05 10° NNE
Cosmos 1544 Rocket 4.0 14:36:36 10° SSW 14:40:59 67° WNW 14:45:22 10° N
SJ-6B 4.2 14:38:39 10° E 14:41:26 20° NE 14:44:12 10° N
Cosmos 1626 2.7 14:38:02 10° NNW 14:41:45 62° W 14:45:26 10° S
FREGAT/IRIS 4.1 14:40:10 10° ESE 14:42:07 17° ENE 14:44:05 10° NNE
Envisat 3.2 14:37:49 10° SSE 14:42:56 80° WSW 14:48:03 10° NNW
Cosmos 371 Rocket 3.3 14:38:16 10° SSW 14:43:01 63° ESE 14:47:48 10° NE
Cosmos 2228 3.8 14:39:22 10° SSE 14:43:13 31° E 14:47:04 10° NNE
Intercosmos 25 3.4 14:39:28 10° SSW 14:43:20 70° WNW 14:46:32 10° N
FengYun 1-2 T 4.4 14:38:30 10° SSE 14:44:10 89° WSW 14:49:50 10° NNW
COSMO-SKYMED 1 3.1 14:40:29 10° NNE 14:44:35 38° E 14:48:40 10° SSE
H-2A R/B 4.2 14:41:36 10° S 14:45:21 43° W 14:49:09 10° NNW
Resurs 01 Rocket 3.4 14:43:04 10° E 14:45:47 16° NE 14:48:29 10° N
Cosmos 1184 Rocket 3.0 14:43:12 10° SSW 14:46:32 75° WNW 14:49:52 10° NNE
Cosmos 304 Rocket 4.2 14:45:07 10° S 14:49:36 40° ESE 14:54:06 10° NE
Cosmos 2181 Rocket 4.4 14:44:25 10° SSW 14:50:53 73° WNW 14:57:22 10° NNE
CSL-04 Debris 4.2 14:47:27 10° SSE 14:52:55 89° ENE 14:58:28 10° NNW
ATLAS CENTAUR R/B 2.1 14:48:37 10° W 14:53:29 60° NNW 14:58:05 10° ENE
Cosmos 921 Rocket 4.3 14:52:04 10° SE 14:55:25 21° E 14:58:46 10° NE
Cosmos 1766 4.3 14:53:13 10° SW 14:57:00 48° WNW 15:00:47 10° N
Cosmos 1939 Rocket 3.0 14:53:20 10° SE 14:57:14 54° ENE 15:01:13 10° N
Cosmos 1726 3.3 14:54:45 10° SE 14:57:37 22° E 15:00:28 10° NE
Cosmos 1825 Rocket 3.9 14:53:15 10° NNW 14:57:37 72° W 15:01:58 10° S
Cosmos 1953 Rocket 3.6 14:53:36 10° NNW 14:58:04 88° ENE 15:02:28 10° SSE
Lacrosse 5 rocket 3.4 14:57:55 10° W 15:00:43 20° SSW 15:03:37 10° SSE
SJ 16-02 2.9 14:57:31 10° NNW 15:00:56 21° NNE 15:03:40 13° ENE
USA 116 4.0 14:58:44 10° NE 15:01:30 27° E 15:04:14 10° SSE
Cosmos 1331 Rocket 4.1 14:57:43 10° SW 15:02:58 85° WNW 15:08:13 10° NNE
Cosmos 1844 Rocket 3.2 15:04:47 10° S 15:09:54 36° ESE 15:15:00 10° NE
CZ-4 R/B 2.3 15:09:55 10° S 15:14:02 56° WSW 15:18:14 10° NNW
Cosmos 1328 3.7 15:10:40 10° NNW 15:14:43 78° ENE 15:18:43 10° SSE
Cosmos 1242 Rocket 2.6 15:12:08 10° NNW 15:15:51 89° WSW 15:19:33 10° SSE
ASTEX 1 3.3 15:12:01 10° N 15:16:58 74° E 15:21:55 10° S
Timation 1 Rocket 4.3 15:11:59 10° SSW 15:17:57 78° SE 15:23:57 10° NE
Cosmos 1606 Rocket 3.5 15:15:59 10° S 15:20:20 65° E 15:24:41 10° NNE
Meteor 2-10 4.3 15:18:07 10° SSE 15:22:48 39° E 15:27:29 10° NNE
Cosmos 1302 Rocket 4.0 15:17:35 10° SSW 15:22:49 84° ESE 15:28:07 10° NE
SPOT 3 Rocket 3.9 15:18:38 10° SE 15:23:34 47° ENE 15:28:34 10° NNW
Cosmos 2278 Rocket 3.7 15:20:12 10° SE 15:22:29 16° ESE 15:22:29 16° ESE
Ariane Rocket 3.0 15:20:19 10° SSE 15:25:26 86° ENE 15:30:36 10° NNW
Cosmos 1844 4.2 15:20:32 10° S 15:25:45 38° ESE 15:31:03 10° NE
Cosmos 1470 3.1 15:21:52 10° SSW 15:25:51 72° WNW 15:29:51 10° NNE
Cosmos 1908 4.0 15:23:12 10° SSE 15:26:38 30° E 15:30:04 10° NNE
SKYMED 2 3.5 15:28:25 10° NNE 15:32:49 86° ESE 15:37:10 10° SSW
Cosmos 2058 3.6 15:29:54 10° N 15:33:49 35° ENE 15:35:46 23° ESE
Cosmos 332 Rocket 4.0 15:30:53 10° SW 15:35:44 73° NW 15:40:39 10° NNE
Cosmos 1607 3.9 15:29:43 10° SW 15:35:54 84° SE 15:41:43 12° ENE
Cosmos 1992 Rocket 4.1 15:31:14 10° S 15:36:19 54° ESE 15:41:25 10° NE
Cosmos 1777 Rocket 4.1 15:31:31 10° NW 15:36:47 78° WSW 15:42:00 10° SSE
Cosmos 1937 Rocket 4.2 15:33:26 10° NNW 15:38:16 37° NE 15:40:54 23° E
NOSS 3-3 (A) 4.4 15:33:11 10° WNW 15:40:13 83° SSW 15:46:29 18° SE
NOSS 3-3 (C) 4.4 15:33:17 10° WNW 15:40:19 84° SSW 15:46:34 18° SE
GEOS 3 Rocket 3.9 15:37:46 20° E 15:41:13 58° N 15:46:18 10° WNW
ATLAS 5 CENTAUR R/B 2.2 15:37:15 10° SSW 15:41:25 40° SE 15:44:02 22° ENE
H-2A R/B 2.3 15:38:23 15° SE 15:42:41 53° ENE 15:47:58 10° NNW
EO 1 Delta rocket 4.3 15:40:50 10° S 15:45:24 65° W 15:50:23 10° NNW
YAOGAN 1 4.1 15:42:50 10° SSW 15:46:54 39° W 15:51:00 10° NNW
SJ-11-01 4.2 15:43:01 10° SSE 15:47:43 76° ENE 15:52:26 10° NNW
Cosmos 990 Rocket 4.3 15:45:56 10° NNW 15:50:58 48° NE 15:53:29 27° ESE
Terra 3.8 15:49:58 13° NE 15:51:04 14° NE 15:53:25 10° N
Cosmos 1339 Rocket 4.5 15:45:57 10° S 15:51:54 57° E 15:57:55 10° NNE
CZ-2C R/B 3.6 15:48:46 21° ESE 15:52:22 47° ENE 15:57:54 10° NNW
Cosmos 2263 Rocket 2.7 15:49:02 10° WSW 15:54:38 59° NW 16:00:15 10° NE
Cosmos 1605 Rocket 4.1 15:48:42 10° NNW 15:55:00 78° W 16:01:09 10° S
Cosmos 1459 Rocket 4.0 15:52:16 10° N 15:58:22 59° ENE 16:03:07 17° SE
Cosmos 1076 Rocket 3.5 15:54:07 10° N 15:58:30 66° ENE 16:01:13 22° SSE
Spot 2 Rocket 4.3 15:57:51 27° E 15:59:25 33° NE 16:03:57 10° N
Cosmos 2084 Rocket 3.5 15:55:53 10° WNW 16:00:22 77° SSW 16:02:20 33° SE
Cosmos 1461 3.3 15:57:04 10° WNW 16:01:00 55° SW 16:03:09 25° SSE
Cosmos 724 4.3 15:55:25 10° SW 16:01:26 65° SE 16:06:15 16° ENE
Cosmos 1726 Rocket 3.8 15:58:43 10° SSW 16:03:06 71° WNW 16:07:30 10° NNE
Cosmos 1833 Rocket 2.9 15:57:47 10° NW 16:03:23 68° WSW 16:08:01 15° SSE
USA 186 1.2 16:03:17 76° SE 16:03:27 82° ENE 16:06:06 10° NNW
Cosmos 1802 Rocket 4.1 15:58:37 10° N 16:05:00 57° ENE 16:09:14 22° SE
Cosmos 1892 3.4 16:02:42 10° N 16:06:12 34° ENE 16:06:12 34° ENE
Lacrosse 5 2.5 16:01:33 10° W 16:06:22 45° SSW 16:08:47 26° SE
HJ-1C 4.4 16:04:35 10° S 16:07:53 47° W 16:11:11 10° NNW
Cosmos 1727 Rocket 4.0 16:02:47 10° SSE 16:08:47 55° E 16:14:47 10° NNE
Cosmos 1818 4.0 16:03:51 10° W 16:09:17 58° NNW 16:12:47 22° ENE
Cosmos 2058 Rocket 3.0 16:05:42 10° SSW 16:10:05 85° WNW 16:14:29 10° NNE
Cosmos 1953 3.5 16:07:57 10° SW 16:11:53 45° WNW 16:15:50 10° N
FREGAT/IRIS 3.2 16:11:30 29° SSW 16:12:39 52° WSW 16:15:27 10° NNW
SL-24 R/B - RUBIN 2 4.2 16:09:19 10° WSW 16:14:32 81° NNW 16:18:33 21° ENE
ARGOS 3.1 16:11:25 21° SSE 16:15:10 77° ENE 16:20:38 10° NNW
SJ-6B 2.7 16:13:43 28° SSE 16:15:42 85° WSW 16:19:30 10° NNW
Cosmos 2227 Rocket 3.7 16:12:16 10° WNW 16:17:14 30° N 16:21:29 13° NE
Cosmos 1898 Rocket 3.5 16:12:16 10° NNW 16:17:32 67° NE 16:19:34 37° ESE
Cosmos 2173 Rocket 3.9 16:11:25 10° NNW 16:17:47 74° ENE 16:22:25 19° SSE
Cosmos 2082 Rocket 2.4 16:12:52 10° NW 16:18:37 73° SW 16:22:13 23° SSE
Cosmos 2228 3.9 16:16:21 10° SW 16:20:38 51° WNW 16:24:55 10° N
COSMO-SKYMED 1 3.8 16:16:42 10° N 16:20:51 44° WNW 16:24:59 10° SW
Resurs 01 Rocket 1.7 16:20:30 45° ESE 16:21:28 55° ENE 16:25:52 10° NNW
Cosmos 1825 3.8 16:18:36 10° N 16:20:44 21° NE 16:20:44 21° NE
ERS-1 Rocket 4.0 16:22:30 27° ENE 16:23:05 28° NE 16:27:20 10° N
Cosmos 2297 Rocket 3.7 16:18:34 10° WNW 16:23:29 29° N 16:27:24 14° NE
SL-27 R/B 3.6 16:21:01 10° NNW 16:23:31 30° NNE 16:23:31 30° NNE
SL-08 RB Rocket 3.6 16:26:42 42° SE 16:28:11 73° ENE 16:32:44 10° NNW
Cosmos 1408 4.0 16:27:26 10° N 16:29:47 27° NNE 16:29:47 27° NNE
Cosmos 292 Rocket 3.7 16:27:16 10° SSW 16:31:57 62° ESE 16:36:40 10° NE
Okean 3 Rocket 3.5 16:27:29 10° NNW 16:32:04 69° ENE 16:33:00 53° SE
Cosmos 1726 2.7 16:28:58 10° SSW 16:32:34 55° WNW 16:36:12 10° N
ATLAS CENTAUR R/B 2.1 16:28:17 10° WNW 16:33:00 53° N 16:34:17 40° ENE
Cosmos 1725 Rocket 4.0 16:26:51 10° N 16:33:03 60° ENE 16:35:26 37° SE
Cosmos 921 Rocket 3.0 16:28:42 10° SSW 16:33:13 86° WNW 16:37:43 10° NNE
Cosmos 2100 Rocket 3.9 16:27:14 10° NNW 16:33:32 88° W 16:38:17 18° S
ADEOS Rocket 3.6 16:32:07 10° NNE 16:39:51 58° E 16:47:18 10° S
SJ 16-02 1.3 16:35:57 10° NNW 16:40:22 64° NE 16:40:39 62° ENE
Cosmos 2150 Rocket 4.5 16:35:03 10° NNW 16:40:22 47° NE 16:41:26 42° ENE
Cosmos 2233 Rocket 4.2 16:35:01 10° N 16:41:05 49° ENE 16:42:31 42° ESE
Cosmos 1125 Rocket 4.4 16:36:15 10° NNW 16:41:07 35° NE 16:42:04 32° ENE
Cosmos 2151 2.9 16:37:34 10° N 16:41:53 68° ENE 16:42:00 67° E
CZ-2C R/B 3.5 16:37:34 10° NNE 16:42:02 65° ESE 16:42:30 60° SE
Cosmos 1356 4.2 16:40:26 10° SW 16:43:48 51° WNW 16:47:12 10° N
SPOT 1/Viking Rocket 4.2 16:45:09 37° ENE 16:45:22 38° NE 16:50:07 10° N
Cosmos 1766 Rocket 3.4 16:41:33 10° NNW 16:45:55 71° ENE 16:46:00 71° E
Cosmos 1000 Rocket 4.5 16:43:33 34° SSE 16:46:08 57° E 16:52:16 10° NNE
Resurs 1-3 3.6 16:47:22 53° S 16:48:23 81° WSW 16:52:49 10° NNW
Cosmos 2084 4.0 16:44:04 10° SW 16:47:32 45° S 16:47:32 45° S
In-Cosmos 22 Rocket 4.1 16:43:46 10° NNW 16:49:07 79° WSW 16:51:33 34° S
Cosmos 1844 Rocket 2.8 16:47:50 10° SW 16:53:31 73° NW 16:59:11 10° NE
Meteor 2-3 Rocket 4.1 16:48:18 10° NNW 16:53:50 46° ENE 16:54:20 45° ENE
Landsat 7 4.5 16:55:33 40° NE 16:55:33 40° NE 16:59:39 10° N
Timation 2 Rocket 4.5 16:51:14 10° NW 16:57:03 46° NNE 16:58:38 38° ENE
MetOp-B 4.1 16:56:31 59° ESE 16:57:20 68° ENE 17:02:41 10° NNW
Cosmos 2016 Rocket 3.9 16:54:27 10° NNW 17:00:43 87° WSW 17:03:30 36° S
Cosmos 2061 Rocket 4.0 16:55:59 10° NNW 17:02:20 82° W 17:05:18 34° S
Cosmos 1908 4.4 16:58:37 10° SW 17:02:22 44° WNW 17:06:09 10° N
SPOT 3 Rocket 4.5 16:59:11 16° SSW 17:03:04 46° W 17:08:06 10° NNW
SL-08 R/B 4.3 16:58:03 10° NNW 17:04:18 88° E 17:06:20 45° SSE
Cosmos 1408 Rocket 3.7 17:00:05 10° NNW 17:03:48 60° NNE 17:03:48 60° NNE
Cosmos 489 Rocket 4.4 16:59:47 10° SSW 17:06:01 88° WNW 17:12:18 10° NNE
Cosmos 2278 Rocket 2.9 17:01:05 10° SSW 17:12:13 10° NE 17:12:15 10° NE
Cosmos 2298 Rocket 4.0 17:01:50 10° NNW 17:07:09 64° NE 17:07:29 63° ENE
Cosmos 1932 4.4 17:02:42 10° WSW 17:09:06 87° NNW 17:12:27 31° ENE
Cosmos 1844 3.9 17:03:54 10° SW 17:09:39 72° NW 17:15:29 10° NE
Cosmos 2058 4.0 17:06:50 10° NNW 17:10:52 44° W 17:11:59 35° SW
Cosmos 1812 Rocket 3.9 17:14:31 44° SW 17:15:46 66° WNW 17:20:15 10° N
GEOS 3 Rocket 3.4 17:18:53 79° SE 17:19:12 87° SSW 17:24:24 10° WNW
Cosmos 1937 Rocket 3.5 17:15:29 10° NW 17:20:38 70° WSW 17:21:04 66° SSW
H-2A R/B 3.2 17:19:01 20° SSW 17:22:18 42° W 17:27:27 10° NNW
Cosmos 1607 4.3 17:17:25 10° W 17:23:32 61° N 17:25:50 38° NE
SPOT 5 3.5 17:24:34 50° NE 17:24:34 50° NE 17:29:21 10° NNW
ATLAS 5 CENTAUR R/B 1.8 17:21:06 10° WSW 17:25:35 81° WNW 17:25:35 81° WNW
Terra 2.9 17:28:52 35° NNE 17:28:52 35° NNE 17:32:13 10° N
Cosmos 1833 4.3 17:22:36 10° NW 17:28:13 62° NE 17:28:22 62° NE
CZ-2C R/B 4.0 17:25:51 10° NNE 17:28:46 28° NE 17:28:46 28° NE
CZ-2C R/B 3.9 17:29:50 33° SSW 17:32:14 53° W 17:37:56 10° NNW
Meteor 2-1 Rocket 4.0 17:32:40 83° S 17:32:53 89° ESE 17:38:30 10° NNE
Spot 2 Rocket 3.6 17:38:04 68° WSW 17:38:09 68° WSW 17:43:14 10° NNW
Cosmos 2263 Rocket 3.7 17:34:34 10° WNW 17:39:37 32° NNW 17:43:25 16° NE
Cosmos 1892 4.3 17:38:27 10° NNW 17:41:12 33° WNW 17:41:12 33° WNW
Lacrosse 5 3.7 17:44:45 10° W 17:47:59 20° SW 17:47:59 20° SW
Cosmos 1818 3.9 17:48:04 10° WNW 17:53:24 59° N 17:53:24 59° N
Cosmos 1825 4.3 17:53:51 10° NNW 17:55:33 25° NNW 17:55:33 25° NNW
Resurs 01 Rocket 3.1 17:58:05 31° W 17:58:14 31° W 18:02:15 10° NNW
ERS-1 Rocket 3.5 18:02:31 57° NNW 18:02:31 57° NNW 18:06:34 10° NNW
Cosmos 2082 Rocket 4.2 17:57:43 10° NW 18:01:52 21° WSW 18:04:04 17° SW
Cosmos 1464 Rocket 4.1 17:55:35 10° NNW 18:01:29 66° NE 18:01:29 66° NE
Cosmos 2227 Rocket 3.3 17:57:35 10° NW 18:02:47 35° NNE 18:03:17 34° NNE
Cosmos 972 Rocket 4.5 17:59:47 10° NNW 18:03:45 57° NNW 18:03:45 57° NNW
Cosmos 2297 Rocket 3.2 18:03:45 10° NW 18:08:59 36° NNE 18:09:11 36° NNE
ATLAS CENTAUR R/B 3.0 18:07:37 10° WNW 18:10:28 36° WNW 18:10:28 36° WNW
Cosmos 2123 Rocket 4.1 18:15:16 70° WSW 18:15:39 73° WNW 18:21:58 10° NNE
Cosmos 1238 Rocket 4.2 18:10:36 10° NNW 18:17:07 67° W 18:17:32 65° WSW
SJ 16-02 3.3 18:14:55 10° NW 18:17:39 25° W 18:17:39 25° W
Cosmos 1125 Rocket 4.3 18:18:25 10° NW 18:22:21 50° NW 18:22:21 50° NW
SPOT 1/Viking Rocket 4.4 18:25:47 48° NW 18:25:47 48° NW 18:29:47 10° NNW
ADEOS Rocket 4.1 18:17:48 10° NNE 18:25:22 56° WNW 18:32:44 10° SW
Cosmos 2034 Rocket 4.3 18:30:25 10° NNW 18:35:28 61° N 18:35:28 61° N
Meteor 2-3 Rocket 4.5 18:31:40 10° NNW 18:36:37 48° WNW 18:36:37 48° WNW
Cosmos 1844 Rocket 4.1 18:33:05 10° W 18:38:15 35° NNW 18:42:26 15° NE
Cosmos 2219 4.1 18:35:40 10° NW 18:40:07 45° N 18:40:07 45° N
Timation 2 Rocket 4.4 18:38:58 10° NW 18:43:36 55° NW 18:43:36 55° NW
Cosmos 2278 Rocket 3.9 18:45:23 10° WSW 18:54:04 25° NNE 18:56:31 10° NE
SPOT 5 4.4 19:03:49 36° WNW 19:03:49 36° WNW 19:07:29 10° NNW
Terra 3.7 19:07:45 27° NW 19:07:45 27° NW 19:10:09 10° NNW
ATLAS 5 CENTAUR R/B 4.1 19:05:54 10° W 19:07:08 18° WNW 19:07:08 18° WNW
CZ-2C R/B 3.8 19:06:13 10° NNE 19:10:17 42° NNW 19:10:17 42° NNW
Cosmos 2263 Rocket 3.7 19:20:02 10° NW 19:25:02 31° NNE 19:25:05 31° NNE
Cosmos 2227 Rocket 3.7 19:41:58 10° NW 19:45:05 33° NNW 19:45:05 33° NNW
Cosmos 2369 Rocket 4.4 19:54:26 18° NE 19:54:26 18° NE 19:55:46 10° NE
Cosmos 2297 Rocket 3.8 19:48:05 10° NW 19:50:58 31° NW 19:50:58 31° NW
Cosmos 1844 Rocket 4.4 20:18:42 10° NW 20:23:37 29° N 20:24:00 29° NNE
SL-16 R/B 3.8 20:27:52 34° NE 20:27:52 34° NE 20:33:09 10° NNW
ATLAS 3B R/B 4.3 20:34:55 23° ENE 20:34:55 23° ENE 20:37:09 10° ENE
Cosmos 2344 4.3 20:35:21 49° ENE 20:35:21 49° ENE 20:41:57 10° ENE
Cosmos 2278 Rocket 3.8 20:35:55 30° NNW 20:36:13 30° N 20:41:14 10° NE
Cosmos 1943 Rocket 4.0 20:43:47 27° NNE 20:43:47 27° NNE 20:46:23 10° NE
Mayak 1.9 20:39:18 10° N 20:39:45 13° N 20:39:45 13° N
CENTAUR R/B 3.8 20:48:40 39° ENE 20:48:40 39° ENE 20:53:24 10° ENE
Cosmos 2263 Rocket 4.1 21:04:32 10° NW 21:06:45 24° NNW 21:06:45 24° NNW
CZ-2D R/B 4.5 21:10:40 10° NE 21:12:33 15° ENE 21:12:33 15° ENE
Cosmos 2369 Rocket 3.6 21:36:13 34° N 21:36:13 34° N 21:39:59 10° NE
NOSS 3-2 (C) 4.3 21:37:45 51° ENE 21:37:45 51° ENE 21:43:29 10° E
Cosmos 1980 Rocket 4.0 22:02:11 24° E 22:02:11 24° E 22:05:18 10° NE
SL-16 R/B 3.3 22:12:58 44° NNW 22:12:58 44° NNW 22:17:06 10° NNW
Mayak 1.8 22:16:11 10° NNW 22:16:20 10° NNW 22:16:20 10° NNW
ATLAS 3B R/B 2.9 22:22:11 64° NNE 22:22:11 64° NNE 22:28:16 10° E
Cosmos 2278 Rocket 3.7 22:17:47 15° NW 22:21:49 33° NNE 22:26:56 10° E
Cosmos 1943 Rocket 3.6 22:25:18 31° NNW 22:25:38 31° NNW 22:30:40 10° NE
Resurs 1-4 Rocket 3.2 22:25:33 10° NNE 22:29:27 40° ENE 22:29:27 40° ENE
Cosmos 1655 Rocket 4.3 22:34:57 66° NE 22:34:57 66° NE 22:40:32 10° NNE
Lacrosse 4 Rocket 4.3 22:38:41 12° E 22:38:41 12° E 22:39:16 10° ENE
CENTAUR R/B 3.0 22:35:51 65° NW 22:36:48 73° N 22:45:00 10° E
USA 238 DEB 3.8 22:39:11 78° ENE 22:39:11 78° ENE 22:46:09 10° ESE
USA 238 3.8 22:39:17 78° ENE 22:39:17 78° ENE 22:46:14 10° ESE
Cosmos 2369 4.3 22:47:34 53° ENE 22:47:34 53° ENE 22:51:55 10° NE
Cosmos 2344 3.9 22:45:21 55° WNW 22:47:29 76° N 22:57:48 10° E
SL-16 R/B 3.8 22:52:31 24° ESE 22:52:59 24° ESE 22:57:29 10° NE
CZ-2D R/B 2.8 22:49:49 10° NNE 22:53:52 51° NE 22:53:52 51° NE
Cosmos 1697 Rocket 3.2 22:56:15 58° ENE 22:56:15 58° ENE 23:00:49 10° NE
Cosmos 1680 Rocket 4.4 23:00:39 45° N 23:00:39 45° N 23:04:26 10° NNE
Cosmos 2266 Rocket 4.0 23:00:25 73° NE 23:00:25 73° NE 23:06:10 10° NNE
NOSS 3-2 (A) 3.8 23:05:10 67° WNW 23:06:19 86° NNE 23:14:17 10° ESE
ADEOS II 3.1 23:01:46 10° NNE 23:06:42 38° E 23:07:07 37° ESE
Cosmos 44 Rocket 4.3 23:12:20 44° NNE 23:12:20 44° NNE 23:16:05 10° ENE
Meteor 2-4 Rocket 4.4 23:12:04 45° ESE 23:12:35 46° E 23:18:00 10° NNE
Cosmos 2315 Rocket 4.4 23:06:31 10° NNW 23:11:15 51° NW 23:11:15 51° NW
Cosmos 2278 3.8 23:19:55 74° NE 23:19:55 74° NE 23:25:05 10° NE
Cosmos 2369 Rocket 3.8 23:18:01 23° NW 23:20:04 29° N 23:24:56 10° ENE
USA 267 4.4 23:15:30 10° E 23:21:06 29° SE 23:21:48 29° SSE
Cosmos 44 4.3 23:25:00 38° ENE 23:25:00 38° ENE 23:27:54 10° E
IRS-P3 4.3 23:19:52 10° NNE 23:25:05 66° E 23:25:05 66° E
Cosmos 2322 Rocket 3.4 23:25:11 31° SE 23:26:11 33° ESE 23:31:10 10° NE
NOSS 3-2 (C) 3.8 23:25:12 50° WNW 23:27:23 85° NNE 23:35:21 10° ESE
Meteor 2-15 4.3 23:26:39 10° NNW 23:32:47 86° WSW 23:32:51 86° SW
ARIANE 5 R/B 3.0 23:29:20 10° NNE 23:34:16 53° ESE 23:34:33 52° ESE
Nadezhda 1 Rocket 4.1 23:31:24 10° NNW 23:37:48 76° ENE 23:41:47 25° SSE
Meteor 1-18 Rocket 4.2 23:38:47 76° WNW 23:38:47 76° WNW 23:44:39 10° NNE
Cosmos 2360 Rocket 4.0 23:36:20 17° SE 23:39:05 25° ESE 23:43:34 10° NE
Cosmos 158 Rocket 4.4 23:42:37 56° NNW 23:42:37 56° NNW 23:47:33 10° NNE
USA 229 DEB 3.6 23:41:58 64° SSW 23:42:55 74° SE 23:50:00 10° ENE
USA 229 3.6 23:42:04 64° SSW 23:43:01 74° SE 23:50:05 10° ENE
Cosmos 1048 Rocket 4.2 23:43:14 63° ESE 23:43:21 63° ESE 23:48:34 10° NE
Cosmos 1980 Rocket 2.0 23:43:57 88° WSW 23:44:01 89° NW 23:49:45 10° NE
Meteor 2-15 Rocket 4.3 23:38:38 10° NNW 23:44:48 86° WSW 23:45:50 64° S
NOSS 3-1 (A) 3.6 23:46:33 54° S 23:47:24 59° SE 23:54:12 10° ENE
Spot 4 Rocket 4.5 23:44:32 10° NNE 23:49:39 58° ESE 23:50:39 49° SE
CZ-2C R/B 4.0 23:49:09 10° NNE 23:52:25 37° E 23:52:25 37° E
Cosmos 1844 Rocket 4.4 23:57:03 19° SSE 23:57:03 19° SSE 23:58:36 10° SSE
SME Rocket 4.0 23:49:19 10° NNE 23:52:37 42° N 23:52:37 42° N
IRS-1D 3.4 23:49:00 10° NNE 23:54:11 78° NW 23:54:11 78° NW
